ENTRYSAT (44431 NORAD) Tracking and Keplerian Element Data

This shows tracking and keplerian element data for the satellite.

Feedback or suggestion? Click here.




ElementValue
Catalog44431
NameENTRYSAT
Epoch Orbit690
Epoch Day228.83655792
Epoch Year2019
RAAN60.0787
Inclination51.6422
Eccentricity0.0002941
Argument of Perigee278.4873
Mean Anonmoly81.5783
Mean Motion15.52089759
Decay Rate4.143E-05
L11 44431U 98067QR 19228.83655792 .00004143 00000-0 74938-4 0 9990
L22 44431 51.6422 60.0787 0002941 278.4873 81.5783 15.52089759 6909

Live tracking and technical data element details for ENTRYSAT (NORAD 44431). ENTRYSAT can be tracked NOW for your location showing map with azimuth and elevation plus other details from your city location.

Track the satellite on the map from your city or location and see movement details for azimuth, elevation, latitude, longitude, range, height, and movement on the map or in text.







IsCatalogInMostPopularTable: catalog: 44431, numindb: 16
Update: records affected: 1



GetName: 44431 ENTRYSAT

Hit Count: updated at: Wed, 21 Aug 2019 12:44:02 GMT